• In Hungary
  • List of Countries
  • For 7 days
  • Water Temperature
  • Satellite Maps
  • Weather Map
  • News
  • Weather Widgets
  • user-avatar
    Login

    Hourly Weather Yakolicy

    Today, 25 June, Monday

    Time Temperature Precipitation Wind Pressure Humidity
    00:00 +10°C° 0 mm 1 mps 740 mmHg 94%
    01:00 +9°C° 0 mm 1 mps 740 mmHg 95%
    02:00 +9°C° 0 mm 1 mps 740 mmHg 96%
    03:00 +10°C° 0 mm 1 mps 741 mmHg 94%
    04:00 +10°C° 0 mm 1 mps 741 mmHg 92%
    05:00 +11°C° 0 mm 1 mps 741 mmHg 90%
    06:00 +13°C° 0 mm 1 mps 742 mmHg 81%
    07:00 +15°C° 0 mm 2 mps 742 mmHg 72%
    08:00 +17°C° 0 mm 2 mps 742 mmHg 63%
    09:00 +18°C° 0 mm 2 mps 742 mmHg 58%
    10:00 +20°C° 0 mm 2 mps 742 mmHg 53%
    11:00 +21°C° 0 mm 2 mps 742 mmHg 48%
    12:00 +21°C° 0 mm 2 mps 743 mmHg 47%
    13:00 +22°C° 0 mm 3 mps 743 mmHg 46%
    14:00 +22°C° 0 mm 3 mps 743 mmHg 45%
    15:00 +23°C° 0 mm 2 mps 743 mmHg 48%
    16:00 +23°C° 0 mm 2 mps 743 mmHg 51%
    17:00 +21°C° 0 mm 2 mps 744 mmHg 54%
    18:00 +20°C° 0 mm 2 mps 744 mmHg 61%
    19:00 +19°C° 0 mm 1 mps 744 mmHg 69%
    20:00 +16°C° 0 mm 1 mps 744 mmHg 76%
    21:00 +15°C° 0 mm 1 mps 744 mmHg 79%
    22:00 +14°C° 0 mm 1 mps 745 mmHg 83%
    23:00 +13°C° 0 mm 1 mps 745 mmHg 86%

    Tomorrow, 26 June, Tuesday

    Time Temperature Precipitation Wind Pressure Humidity
    00:00 +13°C° 0 mm 1 mps 746 mmHg 88%
    01:00 +12°C° 0 mm 1 mps 746 mmHg 90%
    02:00 +12°C° 0 mm 1 mps 746 mmHg 92%
    03:00 +12°C° 0 mm 1 mps 747 mmHg 89%
    04:00 +13°C° 0 mm 1 mps 747 mmHg 86%
    05:00 +13°C° 0 mm 0 mps 747 mmHg 83%
    06:00 +16°C° 0 mm 1 mps 747 mmHg 76%
    07:00 +19°C° 0 mm 1 mps 748 mmHg 68%
    08:00 +21°C° 0 mm 1 mps 748 mmHg 60%
    09:00 +23°C° 0 mm 1 mps 748 mmHg 56%
    10:00 +24°C° 0 mm 1 mps 748 mmHg 51%
    11:00 +25°C° 0 mm 1 mps 748 mmHg 46%
    12:00 +25°C° 0 mm 1 mps 748 mmHg 47%
    13:00 +25°C° 0 mm 1 mps 748 mmHg 47%
    14:00 +25°C° 0 mm 1 mps 748 mmHg 48%
    15:00 +25°C° 0 mm 1 mps 748 mmHg 51%
    16:00 +22°C° 0 mm 0 mps 748 mmHg 55%
    17:00 +22°C° 0 mm 0 mps 748 mmHg 59%
    18:00 +20°C° 0 mm 0 mps 748 mmHg 63%
    19:00 +19°C° 0 mm 0 mps 748 mmHg 67%
    20:00 +17°C° 0 mm 0 mps 748 mmHg 71%
    21:00 +16°C° 0 mm 0 mps 749 mmHg 74%
    22:00 +15°C° 0 mm 0 mps 749 mmHg 76%
    23:00 +14°C° 0 mm 0 mps 749 mmHg 79%

    Day after tomorrow, 27 June, Wednesday

    Time Temperature Precipitation Wind Pressure Humidity
    00:00 +14°C° 0 mm 1 mps 749 mmHg 81%
    01:00 +14°C° 0 mm 1 mps 749 mmHg 82%
    02:00 +14°C° 0 mm 1 mps 749 mmHg 83%
    03:00 +14°C° 0 mm 1 mps 750 mmHg 82%
    04:00 +15°C° 0 mm 1 mps 750 mmHg 81%
    05:00 +16°C° 0 mm 1 mps 750 mmHg 80%
    06:00 +19°C° 0 mm 1 mps 750 mmHg 73%
    07:00 +21°C° 0 mm 1 mps 750 mmHg 65%
    08:00 +23°C° 0 mm 1 mps 751 mmHg 58%
    09:00 +24°C° 0 mm 1 mps 751 mmHg 53%
    10:00 +25°C° 0 mm 1 mps 751 mmHg 48%
    11:00 +26°C° 0 mm 1 mps 751 mmHg 42%
    12:00 +27°C° 0 mm 2 mps 750 mmHg 41%
    13:00 +27°C° 0 mm 2 mps 750 mmHg 40%
    14:00 +27°C° 0 mm 2 mps 750 mmHg 39%
    15:00 +27°C° 0 mm 2 mps 750 mmHg 43%
    16:00 +27°C° 0 mm 2 mps 750 mmHg 47%
    17:00 +26°C° 0 mm 2 mps 749 mmHg 51%
    18:00 +24°C° 0 mm 1 mps 749 mmHg 58%
    19:00 +22°C° 0 mm 1 mps 749 mmHg 65%
    20:00 +20°C° 0 mm 1 mps 750 mmHg 72%
    21:00 +19°C° 0 mm 1 mps 750 mmHg 75%
    22:00 +18°C° 0 mm 1 mps 750 mmHg 77%
    23:00 +16°C° 0 mm 1 mps 750 mmHg 80%

    28 June, Thursday

    Time Temperature Precipitation Wind Pressure Humidity
    00:00 +16°C° 0 mm 1 mps 750 mmHg 82%
    01:00 +15°C° 0 mm 1 mps 750 mmHg 84%
    02:00 +15°C° 0 mm 1 mps 750 mmHg 86%
    03:00 +15°C° 0 mm 1 mps 750 mmHg 85%
    04:00 +16°C° 0 mm 1 mps 750 mmHg 83%
    05:00 +16°C° 0 mm 1 mps 750 mmHg 82%
    06:00 +19°C° 0 mm 1 mps 750 mmHg 74%
    07:00 +21°C° 0 mm 1 mps 750 mmHg 66%
    08:00 +23°C° 0 mm 2 mps 750 mmHg 58%
    09:00 +24°C° 0 mm 2 mps 750 mmHg 53%
    10:00 +26°C° 0 mm 2 mps 750 mmHg 48%
    11:00 +27°C° 0 mm 2 mps 750 mmHg 43%
    12:00 +27°C° 0 mm 2 mps 749 mmHg 41%
    13:00 +27°C° 0 mm 2 mps 749 mmHg 40%
    14:00 +28°C° 0 mm 2 mps 748 mmHg 38%
    15:00 +28°C° 0 mm 1 mps 748 mmHg 41%
    16:00 +27°C° 0 mm 1 mps 748 mmHg 44%
    17:00 +27°C° 0 mm 1 mps 747 mmHg 46%
    18:00 +25°C° 0 mm 1 mps 747 mmHg 54%
    19:00 +23°C° 0 mm 1 mps 747 mmHg 62%
    20:00 +19°C° 0 mm 0 mps 747 mmHg 70%
    21:00 +18°C° 0 mm 0 mps 746 mmHg 72%
    22:00 +17°C° 0 mm 0 mps 746 mmHg 74%
    23:00 +16°C° 0 mm 0 mps 746 mmHg 77%

    29 June, Friday

    Time Temperature Precipitation Wind Pressure Humidity
    00:00 +15°C° 0 mm 0 mps 746 mmHg 78%
    01:00 +15°C° 0 mm 0 mps 745 mmHg 79%
    02:00 +14°C° 0 mm 0 mps 745 mmHg 81%
    03:00 +15°C° 0 mm 0 mps 745 mmHg 80%
    04:00 +16°C° 0 mm 0 mps 744 mmHg 79%
    05:00 +17°C° 0 mm 0 mps 744 mmHg 78%
    06:00 +21°C° 0 mm 1 mps 744 mmHg 71%
    07:00 +22°C° 0 mm 1 mps 743 mmHg 64%
    08:00 +24°C° 0 mm 1 mps 743 mmHg 57%
    09:00 +25°C° 0 mm 2 mps 742 mmHg 52%
    10:00 +27°C° 0 mm 2 mps 742 mmHg 46%
    11:00 +28°C° 0 mm 2 mps 741 mmHg 41%
    12:00 +28°C° 0 mm 2 mps 741 mmHg 42%
    13:00 +28°C° 0 mm 3 mps 740 mmHg 43%
    14:00 +28°C° 0 mm 3 mps 740 mmHg 44%
    15:00 +27°C° 0 mm 3 mps 739 mmHg 48%
    16:00 +27°C° 0 mm 3 mps 738 mmHg 52%
    17:00 +26°C° 0 mm 3 mps 738 mmHg 57%
    18:00 +25°C° 0 mm 3 mps 737 mmHg 63%
    19:00 +22°C° 0 mm 3 mps 736 mmHg 69%
    20:00 +21°C° 0 mm 3 mps 736 mmHg 75%
    21:00 +20°C° 0.4 mm 3 mps 735 mmHg 79%
    22:00 +19°C° 0.4 mm 3 mps 735 mmHg 83%
    23:00 +18°C° 0.4 mm 3 mps 734 mmHg 87%

    30 June, Saturday

    Time Temperature Precipitation Wind Pressure Humidity
    00:00 +18°C° 3.1 mm 2 mps 734 mmHg 90%
    01:00 +17°C° 3.1 mm 2 mps 733 mmHg 94%
    02:00 +18°C° 3.1 mm 1 mps 733 mmHg 98%
    03:00 +17°C° 4.3 mm 2 mps 733 mmHg 97%
    04:00 +16°C° 4.3 mm 2 mps 732 mmHg 97%
    05:00 +16°C° 4.3 mm 2 mps 732 mmHg 97%
    06:00 +14°C° 1.7 mm 3 mps 732 mmHg 96%
    07:00 +14°C° 1.7 mm 3 mps 732 mmHg 95%
    08:00 +13°C° 1.7 mm 3 mps 732 mmHg 94%
    09:00 +13°C° 0.3 mm 3 mps 732 mmHg 90%
    10:00 +13°C° 0.3 mm 3 mps 732 mmHg 85%
    11:00 +14°C° 0.3 mm 3 mps 732 mmHg 81%
    12:00 +16°C° 0 mm 3 mps 732 mmHg 74%
    13:00 +17°C° 0 mm 3 mps 732 mmHg 68%
    14:00 +18°C° 0 mm 4 mps 732 mmHg 62%
    15:00 +17°C° 0 mm 3 mps 732 mmHg 63%
    16:00 +17°C° 0 mm 3 mps 732 mmHg 65%
    17:00 +17°C° 0 mm 3 mps 732 mmHg 66%
    18:00 +14°C° 0 mm 3 mps 731 mmHg 72%
    19:00 +13°C° 0 mm 3 mps 731 mmHg 77%
    20:00 +13°C° 0 mm 2 mps 731 mmHg 83%
    21:00 +12°C° 0 mm 2 mps 732 mmHg 88%
    22:00 +10°C° 0 mm 2 mps 732 mmHg 92%
    23:00 +9°C° 0 mm 2 mps 732 mmHg 96%
    Show more